Regional Weather Roundup
Issued by NWS

Home | Current Version | Previous Version | Graphics & Text | Print | Product List | Glossary On
Versions: 1 2 3 4 5 6 7 8 9 10 11 12 13 14 15 16 17 18 19 20 21 22 23 24 25 26 27 28 29 30 31 32 33 34 35 36 37 38 39 40 41 42 43 44 45 46 47 48 49 50
000
ASUS43 KLSX 300910
RWRMO

WEATHER SUMMARY FOR MISSOURI
NATIONAL WEATHER SERVICE SPRINGFIELD MO
400 AM CDT SUN AUG 30 2015

NOTE: "FAIR" INDICATES FEW OR NO CLOUDS BELOW 12,000 FEET WITH NO
       SIGNIFICANT WEATHER AND/OR OBSTRUCTIONS TO VISIBILITY.
       CURRENT SKY AND/OR WEATHER CONDITIONS ARE NOT AVAILABLE FOR
       CHILLICOTHE AND FARMINGTON.

MOZ001>031-035>038-043-044-053-054-301000-
...NORTHERN AND WESTERN MISSOURI...

CITY           SKY/WX    TMP DP  RH WIND       PRES   REMARKS
KANSAS CTY INT CLOUDY    66  60  81 NE5       30.02F
KANSAS C DTWN  CLOUDY    70  67  90 CALM      30.01S
LEE`S SUMMIT   CLOUDY    68  66  93 NE8       30.02S
ST JOSEPH      PTCLDY    62  61  96 N3        30.02S
CHILLICOTHE      N/A     68  66  93 CALM      30.03S
KIRKSVILLE     FOG       68  67  96 NE9       30.03S VSB 1/2

$$
MOZ066>068-077>081-088>096-101>105-301000-
...SOUTHWEST MISSOURI...

CITY           SKY/WX    TMP DP  RH WIND       PRES   REMARKS
SPRINGFIELD    PTCLDY    69  65  86 SE6       29.99S
JOPLIN         FOG       69  69 100 CALM      29.98S VSB 1

$$
MOZ032>034-039>042-045>050-055>058-069>072-301000-
...CENTRAL MISSOURI...

CITY           SKY/WX    TMP DP  RH WIND       PRES   REMARKS
COLUMBIA       CLEAR     67  66  97 NE6       30.00S FOG
JEFFERSON CITY CLEAR     68  66  93 CALM      29.99S FOG
ROLLA          CLEAR     66  64  93 SE5       30.01R
SEDALIA        FOG       67  66  97 CALM      30.01S VSB 3/4
WHITEMAN AFB   PTCLDY    68  68 100 NE2       29.99S FOG
WARRENSBURG    FOG       64  64 100 CALM      30.00S VSB 3/4
OSAGE BEACH    CLEAR     66  63  88 CALM      30.00S

$$
MOZ051-052-059>065-301000-
...EAST CENTRAL MISSOURI...

CITY           SKY/WX    TMP DP  RH WIND       PRES   REMARKS
ST LOUIS INTL  PTCLDY    74  65  73 S3        30.01S
SPIRIT OF STL  CLEAR     69  67  93 CALM      29.99S
ST CHARLES     CLEAR     68  68 100 CALM      29.99S

$$
MOZ072>076-082>087-097>100-106>115-301000-
...SOUTH CENTRAL AND SOUTHEAST MISSOURI...

CITY           SKY/WX    TMP DP  RH WIND       PRES   REMARKS
CAPE GIRARDEAU CLOUDY    71  67  87 SE6       30.01F
FARMINGTON     PTCLDY    66  64  94 CALM      30.04F
POPLAR BLUFF   CLOUDY    72  65  78 SE5       30.00F
WEST PLAINS    CLOUDY    69  65  86 CALM      30.04S

$$



USA.gov is the U.S. government's official web portal to all federal, state and local government web resources and services.